Location: Ku?niki
(51.4449°N, 17.8974°E)
Time: 01:27:10
(UTC+00:00)

NOSS 3-1 (A) - Pass Details

Date: 18 September 2020
Orbit: 745 x 1467 km, 63.4° (Epoch: 08 October)

Event Time Altitude Azimuth Distance (km) Brightness Sun altitude
Rises 22:40:25 0° 311° (NW) 3,777 7.1 -37.2°
Reaches altitude 10° 22:42:55 10° 316° (NW) 2,922 6.4 -37.2°
Maximum altitude 22:49:53 57° 35° (NE) 1,418 4.4 -37.1°
Enters shadow 22:50:19 56° 48° (NE) 1,437 4.4 -37.1°
